PE1RXF-13 Weather Reports


time (UTC)temp
C
wind
direction
speed
KPH
gust
KPH
rain 1hr
cm
rain 24hr
cm
rain mn
cm
humidity
%
barometer
mb
20260506021412 8 315 1.6 4.8 0.00 0.00 0.00 99 1008.1
20260506014412 8 0 1.6 6.4 0.00 0.00 0.00 99 1008.3
20260506011412 8 0 1.6 3.2 0.00 0.00 0.00 99 1008.4
20260506004412 9 315 1.6 6.4 0.00 0.00 0.00 99 1008.6
20260506001413 9 0 1.6 9.7 0.00 0.00 0.00 99 1008.8
20260505234413 9 45 1.6 6.4 0.00 0.00 0.00 99 1009.2
20260505231412 9 315 1.6 6.4 0.00 0.00 0.00 99 1009.1
20260505224413 9 90 1.6 6.4 0.00 0.00 0.00 99 1009.3
20260505221412 8 315 1.6 6.4 0.00 0.00 0.00 99 1009.5
20260505214412 9 45 1.6 6.4 0.00 0.00 0.00 99 1009.8
20260505211412 9 315 1.6 6.4 0.00 0.00 0.00 99 1009.8
20260505204413 9 270 0.0 4.8 0.00 0.00 0.00 99 1010.0
20260505201413 9 315 1.6 9.7 0.00 0.00 0.00 99 1009.9
20260505194412 9 45 1.6 6.4 0.00 0.00 0.00 99 1009.9
20260505191413 9 0 3.2 12.9 0.00 0.00 0.00 99 1009.8
20260505164413 11 315 4.8 16.1 0.00 0.00 0.00 93 1009.8
20260505161412 12 45 3.2 12.9 0.00 0.00 0.00 84 1009.8
20260505151414 12 45 3.2 9.7 0.00 0.00 0.00 79 1010.0
20260505124418 12 225 1.6 9.7 0.00 0.00 0.00 91 1011.0
20260505121413 11 45 1.6 16.1 0.00 0.00 0.00 93 1011.0
20260505114414 11 270 1.6 9.7 0.00 0.00 0.00 95 1011.1
20260505111413 11 315 1.6 6.4 0.00 0.00 0.00 95 1011.2
20260505101413 11 45 3.2 11.3 0.00 0.00 0.00 99 1011.4
20260505094413 11 337 1.6 8.0 0.00 0.00 0.00 95 1011.5
20260505091413 10 0 1.6 4.8 0.00 0.00 0.00 97 1011.8
20260505084413 10 45 1.6 4.8 0.00 0.00 0.00 98 1012.1
20260505081414 10 0 1.6 4.8 0.00 0.00 0.00 99 1012.1
20260505074413 8 45 3.2 11.3 0.00 0.00 0.00 99 1012.2
20260505071413 8 0 1.6 9.7 0.00 0.00 0.00 99 1012.1
20260505064414 7 315 3.2 11.3 0.00 0.00 0.00 99 1012.2
20260505054413 7 315 1.6 4.8 0.00 0.00 0.00 99 1012.2
20260505041413 7 90 3.2 19.3 0.00 0.00 0.00 99 1012.0
20260505034413 7 315 1.6 4.8 0.00 0.00 0.00 99 1011.9
20260505031415 7 180 1.6 14.5 0.00 0.00 0.00 99 1012.2
20260505031413 7 180 1.6 14.5 0.00 0.00 0.00 99 1012.2
20260505024414 7 45 1.6 14.5 0.00 0.00 0.00 99 1012.3